Time,TemperatureF,DewpointF,PressureIn,WindDirection,WindDirectionDegrees,WindSpeedMPH,WindSpeedGustMPH,Humidity,HourlyPrecipIn,Conditions,Clouds,dailyrainin,SoftwareType,DateUTC
2013-02-17 00:00:00,27.7,13.6,30.23,WSW,247,0.0,0.0,55,0.00,,,0.00,WUHU21623XXSP,2013-02-17 06:00:00,
2013-02-17 00:05:00,27.7,13.6,30.23,WSW,247,0.0,0.0,55,0.00,,,0.00,WUHU21623XXSP,2013-02-17 06:05:00,
2013-02-17 00:10:00,27.7,13.6,30.23,WSW,247,0.0,0.0,55,0.00,,,0.00,WUHU21623XXSP,2013-02-17 06:10:00,
2013-02-17 00:15:00,27.7,13.6,30.23,SW,225,0.0,0.0,55,0.00,,,0.00,WUHU21623XXSP,2013-02-17 06:15:00,
2013-02-17 00:20:00,27.7,13.6,30.23,SW,225,0.0,0.0,56,0.00,,,0.00,WUHU21623XXSP,2013-02-17 06:20:00,
2013-02-17 00:25:00,27.7,14.0,30.23,SW,225,0.0,0.0,56,0.00,,,0.00,WUHU21623XXSP,2013-02-17 06:25:00,
2013-02-17 00:30:00,27.7,14.0,30.23,SW,225,0.0,0.0,56,0.00,,,0.00,WUHU21623XXSP,2013-02-17 06:30:00,
2013-02-17 00:35:00,27.9,14.1,30.23,SW,225,0.0,0.0,56,0.00,,,0.00,WUHU21623XXSP,2013-02-17 06:35:00,
2013-02-17 00:40:00,27.9,14.1,30.23,SSW,202,0.0,0.0,56,0.00,,,0.00,WUHU21623XXSP,2013-02-17 06:40:00,
2013-02-17 00:45:00,27.9,14.6,30.22,SSW,202,0.0,0.0,57,0.00,,,0.00,WUHU21623XXSP,2013-02-17 06:45:00,
2013-02-17 00:50:00,28.0,14.7,30.22,SSW,202,0.0,0.0,57,0.00,,,0.00,WUHU21623XXSP,2013-02-17 06:50:00,
2013-02-17 00:55:00,28.0,14.7,30.22,SSW,202,0.0,0.0,57,0.00,,,0.00,WUHU21623XXSP,2013-02-17 06:55:00,
2013-02-17 01:00:00,28.0,14.7,30.23,South,180,0.0,0.0,57,0.00,,,0.00,WUHU21623XXSP,2013-02-17 07:00:00,
2013-02-17 01:05:00,28.2,14.9,30.23,South,180,1.1,1.1,57,0.00,,,0.00,WUHU21623XXSP,2013-02-17 07:05:00,
2013-02-17 01:10:00,28.6,14.8,30.23,SSE,157,0.0,1.1,56,0.00,,,0.00,WUHU21623XXSP,2013-02-17 07:10:00,
2013-02-17 01:15:00,28.6,14.8,30.23,SSE,157,0.0,1.1,56,0.00,,,0.00,WUHU21623XXSP,2013-02-17 07:15:00,
2013-02-17 01:20:00,28.8,15.0,30.23,South,180,0.0,0.0,56,0.00,,,0.00,WUHU21623XXSP,2013-02-17 07:20:00,
2013-02-17 01:25:00,28.9,15.2,30.22,South,180,0.0,0.0,56,0.00,,,0.00,WUHU21623XXSP,2013-02-17 07:25:00,
2013-02-17 01:30:00,29.1,15.3,30.22,SSE,157,1.1,1.1,56,0.00,,,0.00,WUHU21623XXSP,2013-02-17 07:30:00,
2013-02-17 01:35:00,29.1,15.3,30.23,SSE,157,0.0,2.5,56,0.00,,,0.00,WUHU21623XXSP,2013-02-17 07:35:00,
2013-02-17 01:40:00,29.1,15.3,30.22,South,180,1.1,2.5,56,0.00,,,0.00,WUHU21623XXSP,2013-02-17 07:40:00,
2013-02-17 01:45:00,29.1,15.3,30.22,South,180,1.3,1.3,56,0.00,,,0.00,WUHU21623XXSP,2013-02-17 07:45:00,
2013-02-17 01:50:00,29.3,15.5,30.22,SSE,157,0.0,1.3,56,0.00,,,0.00,WUHU21623XXSP,2013-02-17 07:50:00,
2013-02-17 01:55:00,29.5,15.7,30.22,SSE,157,0.0,0.0,56,0.00,,,0.00,WUHU21623XXSP,2013-02-17 07:55:00,
2013-02-17 02:00:00,29.5,15.7,30.22,South,180,2.2,2.2,56,0.00,,,0.00,WUHU21623XXSP,2013-02-17 08:00:00,
2013-02-17 02:05:00,29.5,15.7,30.22,South,180,0.0,2.2,56,0.00,,,0.00,WUHU21623XXSP,2013-02-17 08:05:00,
2013-02-17 02:10:00,29.5,15.2,30.23,South,180,0.7,0.7,55,0.00,,,0.00,WUHU21623XXSP,2013-02-17 08:10:00,
2013-02-17 02:15:00,29.7,15.4,30.23,South,180,4.0,4.0,55,0.00,,,0.00,WUHU21623XXSP,2013-02-17 08:15:00,
2013-02-17 02:20:00,29.7,15.4,30.23,South,180,0.0,4.0,55,0.00,,,0.00,WUHU21623XXSP,2013-02-17 08:20:00,
2013-02-17 02:25:00,29.8,15.6,30.23,SSW,202,0.0,0.0,55,0.00,,,0.00,WUHU21623XXSP,2013-02-17 08:25:00,
2013-02-17 02:30:00,29.8,15.6,30.22,South,180,1.6,1.6,55,0.00,,,0.00,WUHU21623XXSP,2013-02-17 08:30:00,
2013-02-17 02:35:00,30.0,15.7,30.23,SSW,202,0.7,1.6,55,0.00,,,0.00,WUHU21623XXSP,2013-02-17 08:35:00,
2013-02-17 02:40:00,30.0,15.7,30.23,SSW,202,0.0,0.7,55,0.00,,,0.00,WUHU21623XXSP,2013-02-17 08:40:00,
2013-02-17 02:45:00,30.4,16.1,30.23,SSW,202,0.0,2.7,55,0.00,,,0.00,WUHU21623XXSP,2013-02-17 08:45:00,
2013-02-17 02:50:00,30.4,16.1,30.22,South,180,0.9,2.7,55,0.00,,,0.00,WUHU21623XXSP,2013-02-17 08:50:00,
2013-02-17 02:55:00,30.4,16.1,30.22,South,180,1.6,2.0,55,0.00,,,0.00,WUHU21623XXSP,2013-02-17 08:55:00,
2013-02-17 03:00:00,30.4,15.6,30.22,SW,225,0.0,2.7,54,0.00,,,0.00,WUHU21623XXSP,2013-02-17 09:00:00,
2013-02-17 03:05:00,30.6,15.8,30.22,SSW,202,4.0,4.0,54,0.00,,,0.00,WUHU21623XXSP,2013-02-17 09:05:00,
2013-02-17 03:10:00,30.6,15.8,30.22,SE,135,3.1,4.0,54,0.00,,,0.00,WUHU21623XXSP,2013-02-17 09:10:00,
2013-02-17 03:15:00,30.7,16.0,30.21,SE,135,0.0,3.1,54,0.00,,,0.00,WUHU21623XXSP,2013-02-17 09:15:00,
2013-02-17 03:20:00,30.7,16.0,30.21,SSE,157,2.0,2.0,54,0.00,,,0.00,WUHU21623XXSP,2013-02-17 09:20:00,
2013-02-17 03:25:00,30.9,16.1,30.21,South,180,0.0,2.0,54,0.00,,,0.00,WUHU21623XXSP,2013-02-17 09:25:00,
2013-02-17 03:30:00,30.9,16.1,30.21,South,180,0.0,4.5,54,0.00,,,0.00,WUHU21623XXSP,2013-02-17 09:30:00,
2013-02-17 03:35:00,30.9,16.1,30.21,South,180,1.8,4.5,54,0.00,,,0.00,WUHU21623XXSP,2013-02-17 09:35:00,
2013-02-17 03:40:00,30.9,16.1,30.21,South,180,1.6,1.8,54,0.00,,,0.00,WUHU21623XXSP,2013-02-17 09:40:00,
2013-02-17 03:45:00,30.9,16.1,30.21,South,180,1.1,1.6,54,0.00,,,0.00,WUHU21623XXSP,2013-02-17 09:45:00,
2013-02-17 03:50:00,30.9,15.7,30.21,South,180,0.0,1.1,54,0.00,,,0.00,WUHU21623XXSP,2013-02-17 09:50:00,
2013-02-17 03:55:00,30.9,15.7,30.21,SSW,202,0.0,0.0,53,0.00,,,0.00,WUHU21623XXSP,2013-02-17 09:55:00,
2013-02-17 04:00:00,31.1,15.9,30.21,SSW,202,0.0,0.0,53,0.00,,,0.00,WUHU21623XXSP,2013-02-17 10:00:00,
2013-02-17 04:05:00,31.1,15.9,30.21,SW,225,0.0,0.0,53,0.00,,,0.00,WUHU21623XXSP,2013-02-17 10:05:00,
2013-02-17 04:10:00,31.1,15.9,30.21,WSW,247,2.0,2.0,53,0.00,,,0.00,WUHU21623XXSP,2013-02-17 10:10:00,
2013-02-17 04:15:00,31.1,15.9,30.21,SSW,202,0.4,2.0,53,0.00,,,0.00,WUHU21623XXSP,2013-02-17 10:15:00,
2013-02-17 04:20:00,31.1,15.9,30.21,SSW,202,1.1,2.9,53,0.00,,,0.00,WUHU21623XXSP,2013-02-17 10:20:00,
2013-02-17 04:25:00,31.3,16.1,30.22,SW,225,0.0,2.9,53,0.00,,,0.00,WUHU21623XXSP,2013-02-17 10:25:00,
2013-02-17 04:30:00,31.3,16.1,30.22,South,180,3.4,3.4,53,0.00,,,0.00,WUHU21623XXSP,2013-02-17 10:30:00,
2013-02-17 04:35:00,31.3,16.1,30.21,South,180,3.6,3.6,53,0.00,,,0.00,WUHU21623XXSP,2013-02-17 10:35:00,
2013-02-17 04:40:00,31.3,16.1,30.21,SSE,157,1.1,3.6,53,0.00,,,0.00,WUHU21623XXSP,2013-02-17 10:40:00,
2013-02-17 04:45:00,31.5,16.2,30.22,South,180,1.3,2.9,53,0.00,,,0.00,WUHU21623XXSP,2013-02-17 10:45:00,
2013-02-17 04:50:00,31.5,16.2,30.22,South,180,0.0,2.5,53,0.00,,,0.00,WUHU21623XXSP,2013-02-17 10:50:00,
2013-02-17 04:55:00,31.5,15.8,30.22,South,180,2.2,2.2,52,0.00,,,0.00,WUHU21623XXSP,2013-02-17 10:55:00,
2013-02-17 05:00:00,31.6,16.4,30.22,SSE,157,0.0,2.5,53,0.00,,,0.00,WUHU21623XXSP,2013-02-17 11:00:00,
2013-02-17 05:05:00,31.6,16.0,30.23,West,270,0.0,2.5,52,0.00,,,0.00,WUHU21623XXSP,2013-02-17 11:05:00,
2013-02-17 05:10:00,31.6,16.0,30.23,SSW,202,0.0,0.0,52,0.00,,,0.00,WUHU21623XXSP,2013-02-17 11:10:00,
2013-02-17 05:15:00,31.6,16.0,30.23,South,180,0.0,2.0,52,0.00,,,0.00,WUHU21623XXSP,2013-02-17 11:15:00,
2013-02-17 05:20:00,31.8,16.1,30.23,SSW,202,1.1,2.0,52,0.00,,,0.00,WUHU21623XXSP,2013-02-17 11:20:00,
2013-02-17 05:25:00,31.8,16.1,30.22,South,180,4.0,4.0,52,0.00,,,0.00,WUHU21623XXSP,2013-02-17 11:25:00,
2013-02-17 05:30:00,31.8,16.1,30.23,South,180,2.7,4.0,52,0.00,,,0.00,WUHU21623XXSP,2013-02-17 11:30:00,
2013-02-17 05:35:00,31.8,16.1,30.22,SE,135,0.0,2.7,52,0.00,,,0.00,WUHU21623XXSP,2013-02-17 11:35:00,
2013-02-17 05:40:00,31.8,16.1,30.22,SSE,157,3.1,3.1,52,0.00,,,0.00,WUHU21623XXSP,2013-02-17 11:40:00,
2013-02-17 05:45:00,32.2,16.5,30.23,SW,225,1.8,3.1,52,0.00,,,0.00,WUHU21623XXSP,2013-02-17 11:45:00,
2013-02-17 05:50:00,32.0,16.3,30.23,SE,135,0.0,2.9,52,0.00,,,0.00,WUHU21623XXSP,2013-02-17 11:50:00,
2013-02-17 05:55:00,32.0,16.3,30.23,SSE,157,0.0,0.9,52,0.00,,,0.00,WUHU21623XXSP,2013-02-17 11:55:00,
2013-02-17 06:00:00,32.2,16.5,30.23,South,180,0.0,3.6,52,0.00,,,0.00,WUHU21623XXSP,2013-02-17 12:00:00,
2013-02-17 06:05:00,32.0,16.3,30.23,South,180,0.4,3.6,52,0.00,,,0.00,WUHU21623XXSP,2013-02-17 12:05:00,
2013-02-17 06:10:00,32.2,16.9,30.23,South,180,0.0,1.8,53,0.00,,,0.00,WUHU21623XXSP,2013-02-17 12:10:00,
2013-02-17 06:15:00,32.2,16.9,30.23,South,180,0.0,1.8,53,0.00,,,0.00,WUHU21623XXSP,2013-02-17 12:15:00,
2013-02-17 06:20:00,32.0,16.7,30.23,SSW,202,0.0,0.9,53,0.00,,,0.00,WUHU21623XXSP,2013-02-17 12:20:00,
2013-02-17 06:25:00,32.0,16.7,30.23,SSE,157,1.3,1.3,53,0.00,,,0.00,WUHU21623XXSP,2013-02-17 12:25:00,
2013-02-17 06:30:00,32.0,17.2,30.22,SE,135,4.9,4.9,54,0.00,,,0.00,WUHU21623XXSP,2013-02-17 12:30:00,
2013-02-17 06:35:00,31.8,17.0,30.22,SE,135,3.1,4.9,54,0.00,,,0.00,WUHU21623XXSP,2013-02-17 12:35:00,
2013-02-17 06:40:00,31.8,17.0,30.22,SE,135,2.5,4.9,54,0.00,,,0.00,WUHU21623XXSP,2013-02-17 12:40:00,
2013-02-17 06:45:00,31.8,17.4,30.22,ESE,112,2.2,2.5,55,0.00,,,0.00,WUHU21623XXSP,2013-02-17 12:45:00,
2013-02-17 06:50:00,31.6,17.3,30.22,SE,135,4.7,4.7,55,0.00,,,0.00,WUHU21623XXSP,2013-02-17 12:50:00,
2013-02-17 06:55:00,31.6,17.3,30.22,ESE,112,0.7,4.7,55,0.00,,,0.00,WUHU21623XXSP,2013-02-17 12:55:00,
2013-02-17 07:00:00,31.6,17.7,30.23,South,180,1.6,4.7,56,0.00,,,0.00,WUHU21623XXSP,2013-02-17 13:00:00,
2013-02-17 07:05:00,31.6,17.7,30.23,SE,135,0.0,1.8,56,0.00,,,0.00,WUHU21623XXSP,2013-02-17 13:05:00,
2013-02-17 07:10:00,31.6,17.7,30.24,SW,225,0.0,1.6,56,0.00,,,0.00,WUHU21623XXSP,2013-02-17 13:10:00,
2013-02-17 07:15:00,31.6,17.7,30.23,SW,225,0.0,0.0,56,0.00,,,0.00,WUHU21623XXSP,2013-02-17 13:15:00,
2013-02-17 07:20:00,32.0,18.0,30.24,South,180,2.0,2.0,56,0.00,,,0.00,WUHU21623XXSP,2013-02-17 13:20:00,
2013-02-17 07:25:00,32.2,18.6,30.23,SSE,157,0.9,2.0,57,0.00,,,0.00,WUHU21623XXSP,2013-02-17 13:25:00,
2013-02-17 07:30:00,32.2,18.6,30.24,South,180,1.3,1.8,57,0.00,,,0.00,WUHU21623XXSP,2013-02-17 13:30:00,
2013-02-17 07:35:00,32.4,18.8,30.24,South,180,0.0,2.9,57,0.00,,,0.00,WUHU21623XXSP,2013-02-17 13:35:00,
2013-02-17 07:40:00,32.5,18.9,30.24,SSE,157,0.0,2.9,57,0.00,,,0.00,WUHU21623XXSP,2013-02-17 13:40:00,
2013-02-17 07:45:00,32.5,18.9,30.24,South,180,3.1,3.1,57,0.00,,,0.00,WUHU21623XXSP,2013-02-17 13:45:00,
2013-02-17 07:50:00,32.9,18.8,30.23,SSW,202,0.0,4.0,56,0.00,,,0.00,WUHU21623XXSP,2013-02-17 13:50:00,
2013-02-17 07:55:00,32.9,18.8,30.24,WSW,247,0.0,4.0,56,0.00,,,0.00,WUHU21623XXSP,2013-02-17 13:55:00,
2013-02-17 08:00:00,33.3,19.2,30.24,South,180,5.1,5.1,56,0.00,,,0.00,WUHU21623XXSP,2013-02-17 14:00:00,
2013-02-17 08:05:00,33.4,18.9,30.24,SSW,202,2.0,5.6,55,0.00,,,0.00,WUHU21623XXSP,2013-02-17 14:05:00,
2013-02-17 08:10:00,33.8,19.2,30.24,SSW,202,1.6,5.6,55,0.00,,,0.00,WUHU21623XXSP,2013-02-17 14:10:00,
2013-02-17 08:15:00,34.0,19.4,30.25,ESE,112,6.7,7.4,55,0.00,,,0.00,WUHU21623XXSP,2013-02-17 14:15:00,
2013-02-17 08:20:00,34.2,19.1,30.24,SSE,157,3.1,7.4,54,0.00,,,0.00,WUHU21623XXSP,2013-02-17 14:20:00,
2013-02-17 08:25:00,34.5,19.3,30.25,WNW,292,0.0,7.2,54,0.00,,,0.00,WUHU21623XXSP,2013-02-17 14:25:00,
2013-02-17 08:30:00,34.7,19.7,30.25,SSW,202,0.0,5.6,54,0.00,,,0.00,WUHU21623XXSP,2013-02-17 14:30:00,
2013-02-17 08:35:00,35.1,19.6,30.25,SE,135,6.0,6.0,53,0.00,,,0.00,WUHU21623XXSP,2013-02-17 14:35:00,
2013-02-17 08:40:00,35.2,19.8,30.25,SW,225,4.5,6.0,53,0.00,,,0.00,WUHU21623XXSP,2013-02-17 14:40:00,
2013-02-17 08:45:00,35.8,19.9,30.25,SW,225,1.8,4.5,52,0.00,,,0.00,WUHU21623XXSP,2013-02-17 14:45:00,
2013-02-17 08:50:00,36.0,20.0,30.25,SSW,202,0.9,2.9,52,0.00,,,0.00,WUHU21623XXSP,2013-02-17 14:50:00,
2013-02-17 08:55:00,36.3,19.9,30.25,SSE,157,3.4,4.7,51,0.00,,,0.00,WUHU21623XXSP,2013-02-17 14:55:00,
2013-02-17 09:00:00,36.7,20.3,30.25,SSE,157,0.9,4.7,51,0.00,,,0.00,WUHU21623XXSP,2013-02-17 15:00:00,
2013-02-17 09:05:00,36.9,20.0,30.25,ESE,112,3.6,3.6,50,0.00,,,0.00,WUHU21623XXSP,2013-02-17 15:05:00,
2013-02-17 09:10:00,37.0,20.2,30.25,West,270,4.3,4.3,50,0.00,,,0.00,WUHU21623XXSP,2013-02-17 15:10:00,
2013-02-17 09:15:00,37.2,20.3,30.25,NW,315,1.3,4.3,50,0.00,,,0.00,WUHU21623XXSP,2013-02-17 15:15:00,
2013-02-17 09:20:00,37.6,20.1,30.25,SSW,202,0.0,2.0,49,0.00,,,0.00,WUHU21623XXSP,2013-02-17 15:20:00,
2013-02-17 09:25:00,37.8,19.8,30.25,SSW,202,2.7,5.4,48,0.00,,,0.00,WUHU21623XXSP,2013-02-17 15:25:00,
2013-02-17 09:30:00,37.9,19.9,30.25,South,180,5.8,5.8,48,0.00,,,0.00,WUHU21623XXSP,2013-02-17 15:30:00,
2013-02-17 09:35:00,38.3,20.2,30.25,SSW,202,8.5,8.5,48,0.00,,,0.00,WUHU21623XXSP,2013-02-17 15:35:00,
2013-02-17 09:40:00,38.7,20.0,30.25,SSW,202,0.0,8.5,47,0.00,,,0.00,WUHU21623XXSP,2013-02-17 15:40:00,
2013-02-17 09:45:00,39.4,20.7,30.25,SSE,157,4.3,6.7,47,0.00,,,0.00,WUHU21623XXSP,2013-02-17 15:45:00,
2013-02-17 09:50:00,39.6,20.3,30.25,SE,135,7.6,7.6,46,0.00,,,0.00,WUHU21623XXSP,2013-02-17 15:50:00,
2013-02-17 09:55:00,39.9,20.7,30.25,South,180,4.0,7.6,46,0.00,,,0.00,WUHU21623XXSP,2013-02-17 15:55:00,
2013-02-17 10:00:00,40.6,20.8,30.25,West,270,2.0,4.0,45,0.00,,,0.00,WUHU21623XXSP,2013-02-17 16:00:00,
2013-02-17 10:05:00,41.2,20.8,30.25,South,180,2.7,4.9,44,0.00,,,0.00,WUHU21623XXSP,2013-02-17 16:05:00,
2013-02-17 10:10:00,41.5,21.1,30.25,SSE,157,0.9,4.9,44,0.00,,,0.00,WUHU21623XXSP,2013-02-17 16:10:00,
2013-02-17 10:15:00,42.4,21.9,30.25,SE,135,5.8,6.5,44,0.00,,,0.00,WUHU21623XXSP,2013-02-17 16:15:00,
2013-02-17 10:20:00,43.3,22.2,30.25,West,270,3.1,6.5,43,0.00,,,0.00,WUHU21623XXSP,2013-02-17 16:20:00,
2013-02-17 10:25:00,43.2,21.0,30.25,SE,135,6.3,6.3,41,0.00,,,0.00,WUHU21623XXSP,2013-02-17 16:25:00,
2013-02-17 10:30:00,43.2,19.1,30.25,WNW,292,5.4,8.3,38,0.00,,,0.00,WUHU21623XXSP,2013-02-17 16:30:00,
2013-02-17 10:35:00,43.2,19.1,30.24,WNW,292,3.4,8.3,38,0.00,,,0.00,WUHU21623XXSP,2013-02-17 16:35:00,
2013-02-17 10:40:00,43.7,20.3,30.25,SE,135,2.7,3.8,39,0.00,,,0.00,WUHU21623XXSP,2013-02-17 16:40:00,
2013-02-17 10:45:00,44.6,20.4,30.25,SSW,202,6.9,7.2,38,0.00,,,0.00,WUHU21623XXSP,2013-02-17 16:45:00,
2013-02-17 10:50:00,45.5,21.2,30.24,SSE,157,6.0,7.2,38,0.00,,,0.00,WUHU21623XXSP,2013-02-17 16:50:00,
2013-02-17 10:55:00,46.6,21.5,30.24,SE,135,5.6,8.1,37,0.00,,,0.00,WUHU21623XXSP,2013-02-17 16:55:00,
2013-02-17 11:00:00,47.3,21.5,30.24,SE,135,5.8,8.1,36,0.00,,,0.00,WUHU21623XXSP,2013-02-17 17:00:00,
2013-02-17 11:05:00,48.0,21.5,30.24,SW,225,4.7,8.1,35,0.00,,,0.00,WUHU21623XXSP,2013-02-17 17:05:00,
2013-02-17 11:10:00,48.6,21.3,30.24,West,270,5.1,5.8,34,0.00,,,0.00,WUHU21623XXSP,2013-02-17 17:10:00,
2013-02-17 11:15:00,48.7,20.1,30.24,West,270,0.0,11.9,32,0.00,,,0.00,WUHU21623XXSP,2013-02-17 17:15:00,
2013-02-17 11:20:00,48.7,19.4,30.23,South,180,1.3,11.9,31,0.00,,,0.00,WUHU21623XXSP,2013-02-17 17:20:00,
2013-02-17 11:25:00,49.1,20.4,30.23,West,270,5.4,5.4,32,0.00,,,0.00,WUHU21623XXSP,2013-02-17 17:25:00,
2013-02-17 11:30:00,49.6,20.8,30.23,SSW,202,6.5,6.5,32,0.00,,,0.00,WUHU21623XXSP,2013-02-17 17:30:00,
2013-02-17 11:35:00,50.4,22.1,30.23,WSW,247,0.0,6.5,33,0.00,,,0.00,WUHU21623XXSP,2013-02-17 17:35:00,
2013-02-17 11:40:00,50.5,20.9,30.22,WNW,292,9.2,9.2,31,0.00,,,0.00,WUHU21623XXSP,2013-02-17 17:40:00,
2013-02-17 11:45:00,50.2,20.6,30.22,WNW,292,2.9,9.2,31,0.00,,,0.00,WUHU21623XXSP,2013-02-17 17:45:00,
2013-02-17 11:50:00,50.4,20.8,30.22,WNW,292,2.7,6.5,31,0.00,,,0.00,WUHU21623XXSP,2013-02-17 17:50:00,
2013-02-17 11:55:00,50.4,20.8,30.21,NNW,337,3.6,5.6,31,0.00,,,0.00,WUHU21623XXSP,2013-02-17 17:55:00,
2013-02-17 12:00:00,50.4,20.1,30.21,WNW,292,4.3,5.6,30,0.00,,,0.00,WUHU21623XXSP,2013-02-17 18:00:00,
2013-02-17 12:05:00,50.5,20.2,30.20,WNW,292,6.0,7.8,30,0.00,,,0.00,WUHU21623XXSP,2013-02-17 18:05:00,
2013-02-17 12:10:00,50.5,20.9,30.20,WNW,292,6.9,7.8,31,0.00,,,0.00,WUHU21623XXSP,2013-02-17 18:10:00,
2013-02-17 12:15:00,50.7,21.1,30.20,SW,225,1.1,6.9,31,0.00,,,0.00,WUHU21623XXSP,2013-02-17 18:15:00,
2013-02-17 12:20:00,50.9,20.6,30.20,West,270,5.8,5.8,30,0.00,,,0.00,WUHU21623XXSP,2013-02-17 18:20:00,
2013-02-17 12:25:00,51.4,21.7,30.19,WSW,247,1.6,5.8,31,0.00,,,0.00,WUHU21623XXSP,2013-02-17 18:25:00,
2013-02-17 12:30:00,52.0,22.2,30.19,SSW,202,2.7,5.1,31,0.00,,,0.00,WUHU21623XXSP,2013-02-17 18:30:00,
2013-02-17 12:35:00,52.2,22.4,30.18,SE,135,3.1,3.1,31,0.00,,,0.00,WUHU21623XXSP,2013-02-17 18:35:00,
2013-02-17 12:40:00,52.3,21.9,30.18,West,270,0.0,4.3,30,0.00,,,0.00,WUHU21623XXSP,2013-02-17 18:40:00,
2013-02-17 12:45:00,52.5,22.0,30.18,WNW,292,3.4,5.8,30,0.00,,,0.00,WUHU21623XXSP,2013-02-17 18:45:00,
2013-02-17 12:50:00,52.3,21.9,30.17,SSE,157,4.5,5.8,30,0.00,,,0.00,WUHU21623XXSP,2013-02-17 18:50:00,
2013-02-17 12:55:00,53.1,23.2,30.17,South,180,4.0,6.5,31,0.00,,,0.00,WUHU21623XXSP,2013-02-17 18:55:00,
2013-02-17 13:00:00,53.2,24.0,30.17,WNW,292,0.9,6.5,32,0.00,,,0.00,WUHU21623XXSP,2013-02-17 19:00:00,
2013-02-17 13:05:00,53.4,23.5,30.16,South,180,5.4,5.4,31,0.00,,,0.00,WUHU21623XXSP,2013-02-17 19:05:00,
2013-02-17 13:10:00,53.8,23.8,30.16,WSW,247,6.9,6.9,31,0.00,,,0.00,WUHU21623XXSP,2013-02-17 19:10:00,
2013-02-17 13:15:00,54.3,24.9,30.16,South,180,3.6,6.9,32,0.00,,,0.00,WUHU21623XXSP,2013-02-17 19:15:00,
2013-02-17 13:20:00,54.5,24.3,30.16,SSW,202,4.3,6.9,31,0.00,,,0.00,WUHU21623XXSP,2013-02-17 19:20:00,
2013-02-17 13:25:00,55.2,25.0,30.15,SSW,202,2.5,4.3,31,0.00,,,0.00,WUHU21623XXSP,2013-02-17 19:25:00,
2013-02-17 13:30:00,55.0,23.2,30.15,West,270,3.8,7.4,29,0.00,,,0.00,WUHU21623XXSP,2013-02-17 19:30:00,
2013-02-17 13:35:00,55.0,23.2,30.15,WNW,292,2.0,7.4,29,0.00,,,0.00,WUHU21623XXSP,2013-02-17 19:35:00,
2013-02-17 13:40:00,54.9,24.0,30.15,SSW,202,8.5,8.5,30,0.00,,,0.00,WUHU21623XXSP,2013-02-17 19:40:00,
2013-02-17 13:45:00,55.2,24.3,30.14,West,270,0.0,8.5,30,0.00,,,0.00,WUHU21623XXSP,2013-02-17 19:45:00,
2013-02-17 13:50:00,55.4,24.4,30.14,NW,315,3.6,3.6,30,0.00,,,0.00,WUHU21623XXSP,2013-02-17 19:50:00,
2013-02-17 13:55:00,55.2,24.3,30.13,SSE,157,7.4,7.4,30,0.00,,,0.00,WUHU21623XXSP,2013-02-17 19:55:00,
2013-02-17 14:00:00,55.8,25.5,30.14,SSE,157,7.2,7.4,31,0.00,,,0.00,WUHU21623XXSP,2013-02-17 20:00:00,
2013-02-17 14:05:00,56.3,26.0,30.13,West,270,0.4,7.2,31,0.00,,,0.00,WUHU21623XXSP,2013-02-17 20:05:00,
2013-02-17 14:10:00,56.8,24.8,30.13,SW,225,3.8,4.5,29,0.00,,,0.00,WUHU21623XXSP,2013-02-17 20:10:00,
2013-02-17 14:15:00,56.7,23.7,30.12,WNW,292,2.7,4.5,28,0.00,,,0.00,WUHU21623XXSP,2013-02-17 20:15:00,
2013-02-17 14:20:00,56.7,23.7,30.12,South,180,6.5,6.7,28,0.00,,,0.00,WUHU21623XXSP,2013-02-17 20:20:00,
2013-02-17 14:25:00,56.8,23.8,30.12,WNW,292,4.3,6.7,28,0.00,,,0.00,WUHU21623XXSP,2013-02-17 20:25:00,
2013-02-17 14:30:00,56.7,23.7,30.12,West,270,2.0,5.6,28,0.00,,,0.00,WUHU21623XXSP,2013-02-17 20:30:00,
2013-02-17 14:35:00,56.7,23.4,30.12,SSE,157,4.3,4.3,29,0.00,,,0.00,WUHU21623XXSP,2013-02-17 20:35:00,
2013-02-17 14:40:00,56.1,23.2,30.12,South,180,3.6,7.2,28,0.00,,,0.00,WUHU21623XXSP,2013-02-17 20:40:00,
2013-02-17 14:45:00,56.1,23.2,30.12,WNW,292,5.6,7.2,28,0.00,,,0.00,WUHU21623XXSP,2013-02-17 20:45:00,
2013-02-17 14:50:00,56.3,24.3,30.12,SSW,202,0.0,5.6,29,0.00,,,0.00,WUHU21623XXSP,2013-02-17 20:50:00,
2013-02-17 14:55:00,56.8,24.8,30.11,SSE,157,4.9,4.9,29,0.00,,,0.00,WUHU21623XXSP,2013-02-17 20:55:00,
2013-02-17 15:00:00,56.8,23.8,30.11,SSE,157,3.8,4.9,28,0.00,,,0.00,WUHU21623XXSP,2013-02-17 21:00:00,
2013-02-17 15:05:00,57.6,25.4,30.11,SE,135,5.6,7.8,29,0.00,,,0.00,WUHU21623XXSP,2013-02-17 21:05:00,
2013-02-17 15:10:00,58.1,25.9,30.11,SSE,157,4.7,7.8,29,0.00,,,0.00,WUHU21623XXSP,2013-02-17 21:10:00,
2013-02-17 15:15:00,58.5,25.3,30.11,SE,135,6.5,6.5,28,0.00,,,0.00,WUHU21623XXSP,2013-02-17 21:15:00,
2013-02-17 15:20:00,58.6,24.4,30.10,SW,225,4.5,6.5,27,0.00,,,0.00,WUHU21623XXSP,2013-02-17 21:20:00,
2013-02-17 15:25:00,58.6,24.4,30.10,SSE,157,4.3,5.4,27,0.00,,,0.00,WUHU21623XXSP,2013-02-17 21:25:00,
2013-02-17 15:30:00,58.8,24.6,30.10,SSW,202,6.3,6.3,27,0.00,,,0.00,WUHU21623XXSP,2013-02-17 21:30:00,
2013-02-17 15:35:00,59.0,23.8,30.10,WNW,292,2.2,8.3,26,0.00,,,0.00,WUHU21623XXSP,2013-02-17 21:35:00,
2013-02-17 15:40:00,59.0,23.8,30.10,SE,135,7.2,8.3,26,0.00,,,0.00,WUHU21623XXSP,2013-02-17 21:40:00,
2013-02-17 15:45:00,59.2,23.9,30.10,SSW,202,0.0,7.2,26,0.00,,,0.00,WUHU21623XXSP,2013-02-17 21:45:00,
2013-02-17 15:50:00,58.6,23.5,30.10,South,180,6.0,7.2,26,0.00,,,0.00,WUHU21623XXSP,2013-02-17 21:50:00,
2013-02-17 15:55:00,58.6,23.5,30.10,West,270,2.5,7.2,26,0.00,,,0.00,WUHU21623XXSP,2013-02-17 21:55:00,
2013-02-17 16:00:00,58.5,23.3,30.09,SSW,202,3.8,6.5,26,0.00,,,0.00,WUHU21623XXSP,2013-02-17 22:00:00,
2013-02-17 16:05:00,59.2,24.9,30.09,West,270,3.1,7.4,27,0.00,,,0.00,WUHU21623XXSP,2013-02-17 22:05:00,
2013-02-17 16:10:00,59.2,24.9,30.09,SE,135,7.4,7.4,27,0.00,,,0.00,WUHU21623XXSP,2013-02-17 22:10:00,
2013-02-17 16:15:00,59.4,24.1,30.09,SE,135,5.6,8.3,26,0.00,,,0.00,WUHU21623XXSP,2013-02-17 22:15:00,
2013-02-17 16:20:00,58.8,23.6,30.09,WNW,292,5.8,8.3,26,0.00,,,0.00,WUHU21623XXSP,2013-02-17 22:20:00,
2013-02-17 16:25:00,58.6,23.5,30.09,South,180,3.6,6.9,26,0.00,,,0.00,WUHU21623XXSP,2013-02-17 22:25:00,
2013-02-17 16:30:00,58.6,24.4,30.09,South,180,3.1,5.6,27,0.00,,,0.00,WUHU21623XXSP,2013-02-17 22:30:00,
2013-02-17 16:35:00,58.6,23.5,30.09,WSW,247,0.9,3.1,26,0.00,,,0.00,WUHU21623XXSP,2013-02-17 22:35:00,
2013-02-17 16:40:00,58.5,23.3,30.08,NW,315,0.0,2.7,26,0.00,,,0.00,WUHU21623XXSP,2013-02-17 22:40:00,
2013-02-17 16:45:00,58.5,24.3,30.09,SSW,202,0.0,6.0,27,0.00,,,0.00,WUHU21623XXSP,2013-02-17 22:45:00,
2013-02-17 16:50:00,58.5,24.3,30.09,SSE,157,0.9,6.0,27,0.00,,,0.00,WUHU21623XXSP,2013-02-17 22:50:00,
2013-02-17 16:55:00,58.3,24.1,30.09,SSW,202,4.0,4.7,27,0.00,,,0.00,WUHU21623XXSP,2013-02-17 22:55:00,
2013-02-17 17:00:00,58.1,24.9,30.08,West,270,0.0,4.0,28,0.00,,,0.00,WUHU21623XXSP,2013-02-17 23:00:00,
2013-02-17 17:05:00,57.9,24.8,30.08,South,180,0.0,3.8,28,0.00,,,0.00,WUHU21623XXSP,2013-02-17 23:05:00,
2013-02-17 17:10:00,57.6,25.4,30.08,WSW,247,1.8,3.8,29,0.00,,,0.00,WUHU21623XXSP,2013-02-17 23:10:00,
2013-02-17 17:15:00,56.8,24.8,30.08,WSW,247,2.0,3.8,29,0.00,,,0.00,WUHU21623XXSP,2013-02-17 23:15:00,
2013-02-17 17:20:00,56.5,24.5,30.08,South,180,7.2,7.2,29,0.00,,,0.00,WUHU21623XXSP,2013-02-17 23:20:00,
2013-02-17 17:25:00,56.1,25.1,30.08,WNW,292,3.8,7.2,30,0.00,,,0.00,WUHU21623XXSP,2013-02-17 23:25:00,
2013-02-17 17:30:00,55.2,25.0,30.08,West,270,4.0,4.0,31,0.00,,,0.00,WUHU21623XXSP,2013-02-17 23:30:00,
2013-02-17 17:35:00,54.7,24.8,30.09,SSW,202,2.2,4.0,31,0.00,,,0.00,WUHU21623XXSP,2013-02-17 23:35:00,
2013-02-17 17:40:00,54.3,24.9,30.08,SSW,202,0.7,2.2,32,0.00,,,0.00,WUHU21623XXSP,2013-02-17 23:40:00,
2013-02-17 17:45:00,53.6,25.1,30.09,WSW,247,0.0,2.7,33,0.00,,,0.00,WUHU21623XXSP,2013-02-17 23:45:00,
2013-02-17 17:50:00,53.1,25.3,30.09,SSW,202,0.0,2.7,34,0.00,,,0.00,WUHU21623XXSP,2013-02-17 23:50:00,
2013-02-17 17:55:00,52.7,24.9,30.09,South,180,0.0,4.3,34,0.00,,,0.00,WUHU21623XXSP,2013-02-17 23:55:00,
2013-02-17 18:00:00,52.2,25.1,30.09,WNW,292,1.6,4.3,35,0.00,,,0.00,WUHU21623XXSP,2013-02-18 00:00:00,
2013-02-17 18:05:00,52.0,25.6,30.10,South,180,1.3,2.2,36,0.00,,,0.00,WUHU21623XXSP,2013-02-18 00:05:00,
2013-02-17 18:10:00,51.6,25.3,30.09,South,180,2.5,2.5,36,0.00,,,0.00,WUHU21623XXSP,2013-02-18 00:10:00,
2013-02-17 18:15:00,51.3,25.7,30.09,SSW,202,0.7,2.5,37,0.00,,,0.00,WUHU21623XXSP,2013-02-18 00:15:00,
2013-02-17 18:20:00,50.9,25.7,30.09,SSW,202,0.0,1.6,37,0.00,,,0.00,WUHU21623XXSP,2013-02-18 00:20:00,
2013-02-17 18:25:00,50.9,26.0,30.10,South,180,2.5,2.5,38,0.00,,,0.00,WUHU21623XXSP,2013-02-18 00:25:00,
2013-02-17 18:30:00,50.5,26.4,30.09,SW,225,6.5,6.5,39,0.00,,,0.00,WUHU21623XXSP,2013-02-18 00:30:00,
2013-02-17 18:35:00,50.5,27.1,30.10,SSW,202,1.6,6.5,40,0.00,,,0.00,WUHU21623XXSP,2013-02-18 00:35:00,
2013-02-17 18:40:00,50.4,26.9,30.09,SSW,202,0.0,3.6,40,0.00,,,0.00,WUHU21623XXSP,2013-02-18 00:40:00,
2013-02-17 18:45:00,50.2,26.8,30.09,SSE,157,1.1,3.6,40,0.00,,,0.00,WUHU21623XXSP,2013-02-18 00:45:00,
2013-02-17 18:50:00,50.0,27.2,30.10,South,180,0.0,2.5,41,0.00,,,0.00,WUHU21623XXSP,2013-02-18 00:50:00,
2013-02-17 18:55:00,49.5,26.7,30.09,SE,135,3.6,3.6,41,0.00,,,0.00,WUHU21623XXSP,2013-02-18 00:55:00,
2013-02-17 19:00:00,48.9,26.2,30.09,SE,135,0.0,3.6,41,0.00,,,0.00,WUHU21623XXSP,2013-02-18 01:00:00,
2013-02-17 19:05:00,48.6,26.4,30.09,SE,135,1.8,1.8,42,0.00,,,0.00,WUHU21623XXSP,2013-02-18 01:05:00,
2013-02-17 19:10:00,47.8,25.7,30.09,SE,135,0.0,1.8,42,0.00,,,0.00,WUHU21623XXSP,2013-02-18 01:10:00,
2013-02-17 19:15:00,47.5,25.4,30.09,SE,135,0.0,1.3,42,0.00,,,0.00,WUHU21623XXSP,2013-02-18 01:15:00,
2013-02-17 19:20:00,47.1,25.3,30.09,SE,135,2.5,2.5,42,0.00,,,0.00,WUHU21623XXSP,2013-02-18 01:20:00,
2013-02-17 19:25:00,46.8,25.3,30.09,SSE,157,1.6,2.5,43,0.00,,,0.00,WUHU21623XXSP,2013-02-18 01:25:00,
2013-02-17 19:30:00,46.6,25.7,30.09,SSE,157,3.8,3.8,44,0.00,,,0.00,WUHU21623XXSP,2013-02-18 01:30:00,
2013-02-17 19:35:00,46.6,25.7,30.09,SE,135,2.0,3.8,44,0.00,,,0.00,WUHU21623XXSP,2013-02-18 01:35:00,
2013-02-17 19:40:00,46.2,25.9,30.09,SE,135,1.6,3.1,45,0.00,,,0.00,WUHU21623XXSP,2013-02-18 01:40:00,
2013-02-17 19:45:00,46.0,25.7,30.09,ESE,112,1.6,3.1,45,0.00,,,0.00,WUHU21623XXSP,2013-02-18 01:45:00,
2013-02-17 19:50:00,46.0,25.7,30.09,South,180,2.2,4.9,45,0.00,,,0.00,WUHU21623XXSP,2013-02-18 01:50:00,
2013-02-17 19:55:00,46.2,25.9,30.09,SE,135,0.0,6.3,45,0.00,,,0.00,WUHU21623XXSP,2013-02-18 01:55:00,
2013-02-17 20:00:00,46.4,26.1,30.09,SSE,157,3.4,6.3,45,0.00,,,0.00,WUHU21623XXSP,2013-02-18 02:00:00,
2013-02-17 20:05:00,46.2,25.4,30.10,SSW,202,0.0,4.9,44,0.00,,,0.00,WUHU21623XXSP,2013-02-18 02:05:00,
2013-02-17 20:10:00,46.4,25.5,30.10,SE,135,2.2,4.9,44,0.00,,,0.00,WUHU21623XXSP,2013-02-18 02:10:00,
2013-02-17 20:15:00,46.2,25.4,30.10,SE,135,4.0,4.0,44,0.00,,,0.00,WUHU21623XXSP,2013-02-18 02:15:00,
2013-02-17 20:20:00,46.4,25.5,30.10,SSW,202,1.6,4.0,44,0.00,,,0.00,WUHU21623XXSP,2013-02-18 02:20:00,
2013-02-17 20:25:00,46.0,25.2,30.10,SSW,202,1.6,3.6,44,0.00,,,0.00,WUHU21623XXSP,2013-02-18 02:25:00,
2013-02-17 20:30:00,46.0,25.2,30.10,SE,135,0.0,3.4,44,0.00,,,0.00,WUHU21623XXSP,2013-02-18 02:30:00,
2013-02-17 20:35:00,45.9,25.0,30.10,SE,135,4.7,4.7,44,0.00,,,0.00,WUHU21623XXSP,2013-02-18 02:35:00,
2013-02-17 20:40:00,45.5,24.7,30.10,SSE,157,1.6,4.7,44,0.00,,,0.00,WUHU21623XXSP,2013-02-18 02:40:00,
2013-02-17 20:45:00,45.5,25.3,30.09,South,180,1.8,3.6,45,0.00,,,0.00,WUHU21623XXSP,2013-02-18 02:45:00,
2013-02-17 20:50:00,45.5,25.3,30.09,SSW,202,4.9,7.6,45,0.00,,,0.00,WUHU21623XXSP,2013-02-18 02:50:00,
2013-02-17 20:55:00,45.5,25.3,30.09,SE,135,4.7,7.6,45,0.00,,,0.00,WUHU21623XXSP,2013-02-18 02:55:00,
2013-02-17 21:00:00,45.5,25.3,30.10,SSE,157,2.5,6.5,45,0.00,,,0.00,WUHU21623XXSP,2013-02-18 03:00:00,
2013-02-17 21:05:00,45.3,25.6,30.10,ESE,112,3.4,6.5,46,0.00,,,0.00,WUHU21623XXSP,2013-02-18 03:05:00,
2013-02-17 21:10:00,45.5,25.8,30.10,SE,135,4.7,5.1,46,0.00,,,0.00,WUHU21623XXSP,2013-02-18 03:10:00,
2013-02-17 21:15:00,45.5,25.8,30.10,SE,135,4.0,4.7,46,0.00,,,0.00,WUHU21623XXSP,2013-02-18 03:15:00,
2013-02-17 21:20:00,45.3,25.6,30.10,SSE,157,4.7,6.9,46,0.00,,,0.00,WUHU21623XXSP,2013-02-18 03:20:00,
2013-02-17 21:25:00,45.3,25.6,30.09,South,180,2.9,6.9,46,0.00,,,0.00,WUHU21623XXSP,2013-02-18 03:25:00,
2013-02-17 21:30:00,45.3,25.6,30.09,SSE,157,2.0,2.9,46,0.00,,,0.00,WUHU21623XXSP,2013-02-18 03:30:00,
2013-02-17 21:35:00,45.5,26.3,30.09,SE,135,1.6,5.1,47,0.00,,,0.00,WUHU21623XXSP,2013-02-18 03:35:00,
2013-02-17 21:40:00,45.3,26.2,30.09,South,180,3.4,5.1,47,0.00,,,0.00,WUHU21623XXSP,2013-02-18 03:40:00,
2013-02-17 21:45:00,45.5,25.8,30.09,SE,135,2.7,4.9,46,0.00,,,0.00,WUHU21623XXSP,2013-02-18 03:45:00,
2013-02-17 21:50:00,45.1,26.0,30.09,SSE,157,4.5,6.3,47,0.00,,,0.00,WUHU21623XXSP,2013-02-18 03:50:00,
2013-02-17 21:55:00,45.1,26.0,30.09,SSE,157,5.4,6.3,47,0.00,,,0.00,WUHU21623XXSP,2013-02-18 03:55:00,
2013-02-17 22:00:00,45.0,25.8,30.09,South,180,5.4,6.0,47,0.00,,,0.00,WUHU21623XXSP,2013-02-18 04:00:00,
2013-02-17 22:05:00,45.0,26.4,30.09,ESE,112,3.8,6.3,48,0.00,,,0.00,WUHU21623XXSP,2013-02-18 04:05:00,
2013-02-17 22:10:00,45.0,26.4,30.09,SE,135,0.0,6.3,48,0.00,,,0.00,WUHU21623XXSP,2013-02-18 04:10:00,
2013-02-17 22:15:00,44.8,26.2,30.09,East,90,2.2,3.1,48,0.00,,,0.00,WUHU21623XXSP,2013-02-18 04:15:00,
2013-02-17 22:20:00,44.6,26.1,30.08,SE,135,4.3,4.3,48,0.00,,,0.00,WUHU21623XXSP,2013-02-18 04:20:00,
2013-02-17 22:25:00,44.6,26.1,30.08,SSE,157,6.5,6.5,48,0.00,,,0.00,WUHU21623XXSP,2013-02-18 04:25:00,
2013-02-17 22:30:00,44.4,25.9,30.08,SSE,157,6.5,6.5,48,0.00,,,0.00,WUHU21623XXSP,2013-02-18 04:30:00,
2013-02-17 22:35:00,44.4,26.4,30.08,SSE,157,5.6,6.5,49,0.00,,,0.00,WUHU21623XXSP,2013-02-18 04:35:00,
2013-02-17 22:40:00,44.2,26.3,30.08,SE,135,3.4,5.6,49,0.00,,,0.00,WUHU21623XXSP,2013-02-18 04:40:00,
2013-02-17 22:45:00,44.2,26.3,30.08,SSE,157,3.8,3.8,49,0.00,,,0.00,WUHU21623XXSP,2013-02-18 04:45:00,
2013-02-17 22:50:00,44.2,26.3,30.08,South,180,1.8,4.0,49,0.00,,,0.00,WUHU21623XXSP,2013-02-18 04:50:00,
2013-02-17 22:55:00,44.2,26.3,30.08,SE,135,4.9,5.8,49,0.00,,,0.00,WUHU21623XXSP,2013-02-18 04:55:00,
2013-02-17 23:00:00,44.2,26.3,30.07,SSE,157,6.3,6.3,49,0.00,,,0.00,WUHU21623XXSP,2013-02-18 05:00:00,
2013-02-17 23:05:00,44.2,26.8,30.07,South,180,3.6,6.3,50,0.00,,,0.00,WUHU21623XXSP,2013-02-18 05:05:00,
2013-02-17 23:10:00,44.2,26.8,30.07,South,180,6.7,6.7,50,0.00,,,0.00,WUHU21623XXSP,2013-02-18 05:10:00,
2013-02-17 23:15:00,44.2,26.8,30.07,South,180,6.7,6.7,50,0.00,,,0.00,WUHU21623XXSP,2013-02-18 05:15:00,
2013-02-17 23:20:00,44.6,27.1,30.07,South,180,4.3,6.7,50,0.00,,,0.00,WUHU21623XXSP,2013-02-18 05:20:00,
2013-02-17 23:25:00,44.8,27.3,30.07,SSE,157,6.5,6.5,50,0.00,,,0.00,WUHU21623XXSP,2013-02-18 05:25:00,
2013-02-17 23:30:00,44.8,27.3,30.07,SSE,157,5.4,6.5,50,0.00,,,0.00,WUHU21623XXSP,2013-02-18 05:30:00,
2013-02-17 23:35:00,44.8,27.3,30.07,SSE,157,4.9,5.4,50,0.00,,,0.00,WUHU21623XXSP,2013-02-18 05:35:00,
2013-02-17 23:40:00,44.8,27.3,30.07,SSE,157,2.0,5.4,50,0.00,,,0.00,WUHU21623XXSP,2013-02-18 05:40:00,
2013-02-17 23:45:00,44.8,27.3,30.07,SE,135,2.9,2.9,50,0.00,,,0.00,WUHU21623XXSP,2013-02-18 05:45:00,
2013-02-17 23:50:00,44.8,27.3,30.07,SE,135,0.9,4.9,50,0.00,,,0.00,WUHU21623XXSP,2013-02-18 05:50:00,
2013-02-17 23:55:00,44.8,27.3,30.07,South,180,2.7,4.9,51,0.00,,,0.00,WUHU21623XXSP,2013-02-18 05:55:00,